RH
93 89 78 79 80 77 75 78 81 74 72 71 74 73 74 76 74 76 77 78 78 77 75 76 76 75 77 77 79 80 79 78 78 81 82 79 78 76 78 79 82 77 78
86 85 77 79 78 78 75 76 78 79 76 72 70 71 71 75 75 76 76 77 76 78 77 78 78 77 77 77 78 78 79 80 84 88 89 87 80 75 75 79 80 73 78
79 78 83 78 81 76 78 74 75 76 76 75 74 71 67 71 75 76 76 77 76 78 76 77 78 78 79 77 77 77 78 79 82 85 86 86 84 77 74 80 78 75 74
80 78 82 80 80 80 79 76 76 75 75 75 75 70 71 75 77 79 76 76 78 77 80 78 76 76 77 77 78 77 74 75 79 77 71 76 75 79 77 73 77 75 73
83 80 80 79 80 78 77 76 78 79 78 80 79 78 74 81 84 82 77 78 79 80 79 78 75 76 76 74 72 74 72 75 77 69 67 70 75 75 78 78 77 72 78
87 82 81 84 80 80 81 77 78 74 78 77 81 82 85 91 94 83 78 78 79 78 78 78 76 76 74 70 69 71 71 73 73 65 63 67 68 73 74 75 78 78 78
91 85 80 78 78 78 78 77 78 78 85 88 92 92 95 81 80 73 78 77 77 78 76 74 75 75 71 67 64 65 71 75 69 69 70 65 62 66 68 71 75 78 78
87 89 86 80 78 74 80 84 86 89 82 84 92 86 86 78 72 73 77 75 76 77 75 74 74 73 69 62 60 62 68 71 67 70 74 78 66 63 65 69 68 67 71
85 90 95 91 81 81 81 82 81 79 79 76 70 77 74 73 72 73 71 70 71 73 73 73 72 68 63 56 51 60 68 70 68 69 62 74 64 61 64 64 65 66 68
87 91 93 95 94 94 89 82 81 82 80 77 81 83 83 78 75 72 72 70 69 69 68 68 66 62 54 45 45 54 64 66 70 69 71 70 59 59 59 62 63 64 64
90 88 94 96 98 95 92 86 85 84 84 84 83 84 76 70 69 68 74 71 68 66 64 57 50 48 45 43 48 56 62 74 82 78 74 68 62 66 72 72 71 70 69
96 92 93 96 99 97 92 90 78 75 81 74 68 63 65 65 67 67 70 67 62 57 48 39 39 39 34 29 36 50 68 87 91 91 82 73 71 69 67 67 68 66 66
95 91 92 92 97 95 95 77 74 78 69 54 57 64 66 69 68 65 66 63 52 43 32 31 31 30 28 29 30 41 70 89 92 90 74 71 65 62 62 62 61 60 61
96 91 89 88 90 88 86 77 74 69 65 58 61 60 59 63 55 46 46 41 38 36 31 33 30 28 28 25 29 41 72 89 86 85 73 71 63 63 61 62 60 61 62
94 95 90 87 84 83 81 78 71 66 56 51 52 46 41 42 38 39 37 36 35 32 31 31 29 29 28 26 29 47 77 83 80 82 72 72 65 63 62 62 63 63 62
89 92 89 88 83 76 80 77 70 62 56 47 44 39 37 40 39 39 37 39 37 36 35 32 30 31 31 28 28 32 53 80 77 78 75 71 65 62 62 62 62 60 60
88 85 89 87 84 78 70 67 63 58 56 53 42 34 35 38 36 40 43 42 39 33 31 31 32 31 32 26 27 29 36 62 75 71 68 68 65 57 58 57 57 58 58
87 87 86 79 82 82 74 63 54 57 56 54 48 44 36 36 36 40 45 43 40 39 39 38 40 39 38 34 32 31 31 33 47 63 64 57 56 51 52 51 53 56 58
86 87 82 78 79 79 67 60 58 54 56 53 51 48 45 41 40 39 41 42 41 46 45 40 42 40 41 42 36 38 34 34 32 32 37 38 43 44 42 40 42 47 52
86 86 82 76 74 70 66 56 54 55 54 50 47 45 45 41 43 47 45 40 40 44 45 43 40 43 43 41 28 38 43 37 38 38 39 34 37 37 38 39 45 44 42
92 90 83 77 76 70 64 56 52 53 54 53 49 45 41 41 43 40 46 47 46 42 40 38 45 42 46 49 53 51 47 39 38 37 39 40 36 37 38 41 44 47 47
92 91 82 75 72 68 63 54 54 52 57 56 54 45 43 42 48 40 40 46 46 42 41 41 48 56 54 53 58 62 56 47 43 38 42 36 37 36 38 36 40 42 48
85 84 77 74 70 64 59 58 56 56 56 56 52 50 47 44 48 46 43 46 45 46 46 44 53 50 57 57 50 53 66 59 54 51 41 41 37 43 44 41 40 41 45
77 71 77 71 71 60 55 56 51 54 60 59 55 55 52 49 48 51 49 44 46 51 46 47 47 57 56 58 54 43 51 54 55 55 51 45 41 36 45 45 44 42 45
64 73 75 73 68 60 58 54 54 56 60 58 56 51 51 50 50 49 49 48 50 54 50 45 46 48 54 55 62 58 51 52 47 59 58 54 50 50 48 47 49 48 45
63 64 70 77 72 59 58 56 55 56 61 62 59 57 56 58 56 51 50 50 51 49 47 53 47 43 50 54 54 50 51 48 49 49 53 58 54 50 50 51 50 52 52
Wind_Speed
3 5 8 7 7 7 6 10 12 9 8 10 12 12 12 14 15 16 16 16 12 12 14 15 17 19 19 19 19 19 19 20 18 17 16 17 18 19 19 18 15 13 18
6 5 8 7 7 6 7 8 12 13 10 10 12 15 14 12 16 18 17 17 13 15 14 16 17 20 19 19 20 19 19 19 18 16 14 13 15 18 19 17 16 16 19
5 4 5 8 8 8 5 7 7 9 11 9 15 15 15 16 17 19 18 19 15 16 16 18 19 21 19 19 17 17 17 20 18 16 14 7 9 17 18 16 16 17 18
5 4 6 10 10 9 7 8 7 9 11 13 12 15 16 17 20 20 19 22 18 16 17 19 20 19 18 18 19 21 22 21 18 16 10 10 10 19 17 18 19 18 17
4 4 4 6 11 7 3 5 10 9 9 11 14 16 18 20 22 23 21 23 19 19 19 20 18 17 17 17 17 16 21 20 17 14 12 9 8 16 19 20 17 17 17
7 7 7 14 13 12 9 5 13 11 8 4 14 17 21 23 23 26 23 22 18 17 18 18 16 15 15 16 18 17 19 20 14 10 12 13 10 17 18 17 17 18 18
6 6 8 12 13 14 13 8 7 16 19 27 19 25 19 28 26 24 22 22 17 15 16 16 16 14 14 16 17 20 19 17 11 11 11 8 8 16 17 16 18 19 17
7 6 6 14 12 10 15 19 26 24 27 27 29 20 21 22 23 24 22 19 18 17 15 15 15 15 15 16 18 21 21 17 11 10 7 5 12 15 16 17 16 16 16
6 9 6 6 11 14 17 20 23 24 25 27 26 23 22 20 19 22 22 19 18 16 15 15 15 15 14 16 17 19 21 20 9 6 6 4 12 15 16 16 17 17 17
5 7 8 7 6 6 8 19 18 19 24 26 25 23 19 15 15 20 21 19 17 16 16 15 14 14 14 16 15 17 19 17 7 6 4 4 14 15 14 16 16 17 17
3 5 9 9 6 6 6 11 16 19 21 23 23 25 16 7 6 11 17 19 17 16 16 16 15 15 15 14 14 17 14 5 6 4 2 9 16 18 18 19 19 17 18
7 4 7 9 7 6 7 8 8 8 5 7 10 12 10 11 8 8 13 18 16 16 15 13 14 13 10 5 5 11 5 6 5 3 1 17 18 17 16 16 16 15 15
9 7 5 8 7 7 8 7 4 4 3 5 8 8 10 8 7 5 4 4 4 10 4 6 6 5 6 5 5 5 6 6 3 3 10 18 17 14 13 13 13 13 13
10 11 9 8 8 7 6 7 6 6 4 4 7 9 6 5 7 5 3 3 2 4 7 4 4 5 6 7 6 7 6 5 3 3 10 14 15 15 13 12 12 12 12
12 11 12 10 10 7 8 6 6 6 6 7 6 7 6 6 5 5 4 3 3 5 6 5 5 5 6 6 6 7 7 6 6 4 6 18 16 14 12 12 12 12 11
15 13 13 13 10 10 8 8 6 5 6 6 7 7 8 6 5 5 5 5 4 5 5 5 4 5 4 5 6 6 6 6 7 6 6 9 14 12 12 11 10 10 9
16 16 15 14 11 11 10 7 7 6 6 6 6 9 9 7 7 6 4 4 4 5 7 5 4 4 5 4 6 6 6 6 6 8 7 5 6 11 11 10 9 9 8
17 18 16 13 13 11 9 7 5 5 5 4 4 5 8 9 9 7 6 4 4 5 5 4 4 4 4 5 4 4 5 5 6 6 5 4 4 4 7 9 10 9 9
18 18 17 16 14 12 10 7 6 6 4 4 4 4 7 7 8 8 7 5 6 5 5 5 3 4 4 4 5 4 4 4 5 6 6 5 5 4 3 7 8 9 9
16 16 16 13 14 13 9 7 6 5 4 3 3 3 5 5 7 6 5 7 5 6 4 4 5 4 4 5 6 5 4 3 4 5 5 5 5 5 4 5 4 3 7
11 14 15 15 14 11 10 9 6 6 4 3 3 4 5 5 6 7 6 6 5 5 4 6 4 6 4 3 4 3 3 3 4 4 4 4 5 5 5 4 3 2 2
9 13 14 14 15 11 9 7 4 5 3 3 3 4 4 4 5 6 6 6 6 6 5 5 6 4 3 1 4 3 3 2 2 2 4 4 5 3 4 4 4 4 3
9 6 13 14 14 11 12 9 8 7 5 3 2 3 3 5 5 5 5 4 6 4 5 4 5 6 5 1 2 4 3 3 2 2 0 2 4 2 3 4 4 4 4
8 9 4 11 12 11 13 10 13 7 5 3 3 4 3 4 4 5 6 5 3 4 6 4 4 3 5 5 2 1 3 4 4 1 2 1 3 4 4 2 3 3 4
12 9 7 6 10 11 10 11 8 7 4 5 6 7 5 4 4 4 5 6 6 3 3 5 4 4 3 4 3 3 2 2 2 4 3 3 1 1 3 4 4 3 3
12 11 8 6 5 9 10 10 12 11 8 7 6 6 5 4 3 4 4 5 5 6 5 3 5 4 3 4 3 4 3 4 3 3 3 2 3 2 2 2 3 3 3
Wind_Direction
176 168 157 154 150 153 157 160 154 170 175 175 159 154 133 128 115 104 104 101 98 110 118 116 113 108 104 103 99 96 96 93 91 86 79 80 85 84 83 77 76 82 89
128 150 166 166 173 169 174 171 173 177 190 189 171 155 147 139 121 109 108 100 97 105 114 113 110 104 101 98 91 96 98 96 88 76 67 68 86 90 88 83 81 83 78
118 151 169 190 188 184 195 187 183 178 183 189 176 158 161 147 122 110 109 98 94 102 106 103 99 89 93 92 98 101 95 89 80 76 72 66 76 92 96 94 89 86 83
157 199 188 194 192 196 207 203 178 182 186 183 171 159 147 137 126 116 107 99 91 102 106 101 92 92 95 91 92 100 94 89 79 71 66 62 75 81 87 91 83 87 90
190 133 81 192 185 173 174 211 202 201 190 193 185 167 152 138 129 115 105 96 92 93 104 96 99 94 92 84 84 96 100 87 79 77 68 56 59 70 75 72 71 84 83
126 99 91 101 114 93 85 113 200 186 106 221 198 167 145 123 107 109 99 90 84 90 93 95 99 94 89 79 73 93 87 86 78 73 70 62 64 68 70 73 74 75 72
107 105 112 108 128 101 87 81 160 155 112 80 85 95 109 108 109 103 101 97 97 94 96 102 101 92 86 78 73 83 88 83 78 67 57 51 70 76 77 75 70 68 65
110 122 113 118 122 126 105 93 99 104 103 101 99 102 83 80 105 108 105 106 107 104 106 104 96 89 84 79 73 78 79 83 76 73 68 56 82 83 84 81 82 76 71
105 117 107 104 124 121 113 108 112 113 108 100 100 96 109 115 107 110 113 112 111 112 109 103 96 91 84 80 71 75 80 83 77 74 74 58 83 86 87 87 86 84 83
95 109 121 104 97 103 111 117 114 110 117 119 116 110 100 99 109 115 113 115 116 113 107 104 100 91 89 83 75 75 87 84 76 73 69 91 95 92 93 94 92 88 84
124 117 124 123 119 112 100 111 120 125 122 121 116 110 97 86 99 109 112 111 115 113 104 100 100 97 88 74 79 82 84 75 75 63 56 112 100 91 84 82 82 78 78
162 163 135 136 133 128 112 87 72 66 73 115 113 112 124 111 102 95 104 112 117 112 110 110 95 88 75 66 58 73 76 71 64 55 181 96 91 88 82 79 79 81 80
167 161 160 145 134 129 123 109 105 97 84 64 78 103 105 103 101 86 67 83 118 102 69 68 76 71 76 81 67 74 83 68 34 32 95 98 96 99 99 100 99 93 91
172 169 159 156 141 130 126 134 134 135 117 105 106 108 103 108 110 111 120 167 126 117 104 87 77 87 79 78 87 78 84 79 45 36 73 86 93 91 93 88 87 84 79
175 173 171 161 152 145 135 134 133 131 128 125 117 113 117 123 127 120 128 117 95 107 107 99 88 84 82 78 71 86 94 90 70 50 82 80 83 90 90 90 84 79 78
179 173 173 171 161 155 151 151 144 136 137 137 133 133 131 130 136 138 139 129 111 88 96 109 117 105 95 96 87 84 95 88 84 72 75 83 90 91 91 82 80 75 71
181 172 173 172 164 163 154 147 147 157 151 145 151 140 141 146 140 126 121 105 99 97 99 94 89 93 98 93 92 91 94 101 96 92 88 79 81 87 86 85 75 69 63
171 176 171 172 168 165 155 144 148 140 133 141 141 134 152 152 143 132 122 125 129 118 114 118 121 101 100 99 95 81 90 92 103 108 101 101 93 73 79 83 72 59 54
172 170 176 168 164 157 146 135 122 124 122 135 133 140 151 148 147 141 137 145 150 139 136 144 135 124 125 112 109 86 82 94 105 109 109 115 118 109 80 85 79 67 55
166 169 170 167 153 145 135 126 119 122 114 129 136 138 136 147 137 132 135 146 155 134 142 132 132 110 129 136 108 91 89 101 105 121 123 116 107 104 95 84 67 25 67
154 160 166 161 152 145 148 143 146 149 138 105 117 129 130 130 135 150 147 147 141 139 161 137 108 111 80 107 92 56 33 43 109 141 136 140 140 137 128 120 119 97 49
147 162 163 160 154 153 155 149 135 134 103 99 113 115 128 129 139 149 161 149 149 141 145 151 131 118 88 149 133 112 146 345 347 176 137 157 157 141 134 130 125 110 87
31 157 160 156 153 140 138 117 105 89 86 89 114 118 154 135 142 135 139 147 143 144 154 160 146 136 143 169 146 145 126 184 136 8 246 150 156 116 139 132 132 130 112
22 37 129 151 148 142 142 132 152 155 151 164 143 124 114 118 130 141 139 139 139 144 152 159 159 149 128 151 77 77 66 133 151 131 340 248 178 154 163 139 134 145 138
19 27 27 144 148 148 145 144 147 137 122 136 133 132 127 112 121 134 138 135 130 107 119 142 142 139 148 144 142 145 100 58 97 132 175 215 289 205 187 156 158 148 143
12 25 18 64 107 152 150 146 151 146 137 136 144 150 144 129 130 122 112 115 117 122 118 98 99 113 116 118 133 137 159 164 179 148 126 153 167 235 189 170 148 153 153